Retour au catalogue

STARLINK-32178

ActifCommunicationsVLEO
NORAD 60413·PAYLOAD·🇺🇸 United States

Lancé Aug 10, 2024 depuis Cape Canaveral Space Force Station

Loading…

Prochains Passages (prochaines 24 heures)

TLE

FraisSource: CelesTrak SupGP

Époque: Sep 15, 2026, 02:10 UTC

1 60413C 24141R   26258.09076389 -.00009465  00000+0 -27959-3 0  2589
2 60413  53.1566  78.6626 0001262  93.3593  51.8236 15.34402750    17

Suivez STARLINK-32178 en temps réel avec AllMySat

Download on the App Store